TimeCDT,TemperatureF,Dew PointF,Humidity,Sea Level PressureIn,VisibilityMPH,Wind Direction,Wind SpeedMPH,Gust SpeedMPH,PrecipitationIn,Events,Conditions,WindDirDegrees,DateUTC
12:53 AM,33.1,21.9,64,30.05,10.0,Calm,Calm,-,N/A,,Overcast,0,2013-03-23 05:53:00
1:53 AM,33.1,21.9,64,30.05,10.0,NE,3.5,-,N/A,,Overcast,50,2013-03-23 06:53:00
2:53 AM,33.1,21.9,64,30.04,10.0,NNE,5.8,-,N/A,,Overcast,30,2013-03-23 07:53:00
3:53 AM,32.0,21.9,66,30.02,10.0,NE,6.9,-,N/A,,Overcast,50,2013-03-23 08:53:00
4:53 AM,32.0,23.0,69,30.05,10.0,NE,3.5,-,N/A,,Overcast,40,2013-03-23 09:53:00
5:53 AM,32.0,21.9,66,30.04,10.0,NE,5.8,-,N/A,,Overcast,40,2013-03-23 10:53:00
6:53 AM,32.0,21.9,66,30.08,10.0,North,4.6,-,N/A,,Overcast,10,2013-03-23 11:53:00
7:53 AM,32.0,21.9,66,30.06,10.0,NE,6.9,-,N/A,,Overcast,40,2013-03-23 12:53:00
8:08 AM,32.0,21.2,64,30.04,10.0,NE,8.1,-,N/A,,Overcast,40,2013-03-23 13:08:00
8:53 AM,33.1,23.0,66,30.06,10.0,ENE,10.4,-,N/A,,Overcast,60,2013-03-23 13:53:00
9:53 AM,34.0,21.9,61,30.09,10.0,ENE,9.2,-,N/A,,Overcast,60,2013-03-23 14:53:00
10:53 AM,36.0,21.9,57,30.10,10.0,NE,6.9,-,N/A,,Overcast,50,2013-03-23 15:53:00
11:53 AM,39.0,21.9,50,30.07,10.0,East,13.8,-,N/A,,Overcast,80,2013-03-23 16:53:00
12:53 PM,41.0,21.9,47,30.03,10.0,NE,13.8,24.2,N/A,,Overcast,50,2013-03-23 17:53:00
1:53 PM,41.0,21.9,47,30.01,10.0,NE,15.0,-,N/A,,Overcast,40,2013-03-23 18:53:00
2:53 PM,39.9,24.1,53,29.99,10.0,NNE,18.4,24.2,N/A,,Overcast,20,2013-03-23 19:53:00
3:53 PM,37.0,26.1,65,29.97,10.0,NNE,17.3,25.3,N/A,,Overcast,20,2013-03-23 20:53:00
4:46 PM,33.8,28.4,81,29.96,1.8,North,16.1,26.5,0.00,Snow,Light Snow,10,2013-03-23 21:46:00
4:53 PM,33.1,28.9,85,29.99,1.5,North,15.0,24.2,0.00,Snow,Light Snow,10,2013-03-23 21:53:00
5:12 PM,33.8,28.4,81,29.96,1.2,North,13.8,24.2,0.00,Snow,Light Snow,10,2013-03-23 22:12:00
5:21 PM,32.0,28.4,87,29.96,1.0,NNE,16.1,-,0.00,Snow,Light Snow,20,2013-03-23 22:21:00
5:53 PM,30.9,28.0,89,30.00,1.2,North,17.3,24.2,0.00,Snow,Light Snow,10,2013-03-23 22:53:00
6:42 PM,30.2,28.4,93,29.98,0.8,NNE,16.1,-,0.00,Snow,Light Snow,20,2013-03-23 23:42:00
6:53 PM,30.9,28.0,89,30.01,0.8,NNE,16.1,23.0,0.00,Snow,Light Snow,20,2013-03-23 23:53:00
7:02 PM,30.2,28.4,93,29.99,1.0,North,17.3,21.9,0.00,Snow,Light Snow,10,2013-03-24 00:02:00
7:17 PM,30.2,28.4,93,30.00,1.0,NNE,15.0,-,0.00,Snow,Light Snow,20,2013-03-24 00:17:00
7:26 PM,30.2,28.4,93,30.00,1.0,North,16.1,23.0,0.00,Snow,Light Snow,10,2013-03-24 00:26:00
7:35 PM,30.2,26.6,86,30.00,0.8,North,17.3,24.2,0.00,Snow,Light Snow,10,2013-03-24 00:35:00
7:48 PM,30.2,28.4,93,30.01,0.8,North,12.7,-,0.00,Snow,Light Snow,10,2013-03-24 00:48:00
7:53 PM,30.0,27.0,88,30.04,1.0,North,15.0,20.7,0.00,Snow,Light Snow,10,2013-03-24 00:53:00
8:02 PM,30.2,26.6,86,30.01,1.0,North,16.1,-,0.00,Snow,Light Snow,10,2013-03-24 01:02:00
8:18 PM,30.2,26.6,86,30.01,1.8,NNE,17.3,23.0,0.00,Snow,Light Snow,20,2013-03-24 01:18:00
8:25 PM,30.2,26.6,86,30.01,2.5,NNE,18.4,23.0,0.00,Snow,Light Snow,20,2013-03-24 01:25:00
8:32 PM,30.2,26.6,86,30.02,3.0,North,17.3,-,0.00,Snow,Light Snow,10,2013-03-24 01:32:00
8:43 PM,30.2,26.6,86,30.02,3.0,NNE,13.8,23.0,0.00,Snow,Light Snow,20,2013-03-24 01:43:00
8:53 PM,30.0,27.0,88,30.05,3.0,NNE,15.0,-,0.00,Snow,Light Snow,20,2013-03-24 01:53:00
9:05 PM,30.2,26.6,86,30.02,2.5,NNE,15.0,24.2,0.00,Snow,Light Snow,20,2013-03-24 02:05:00
9:25 PM,30.2,26.6,86,30.01,3.0,NNE,16.1,25.3,0.00,Snow,Light Snow,30,2013-03-24 02:25:00
9:53 PM,30.0,27.0,88,30.04,3.0,NNE,15.0,24.2,0.00,Snow,Light Snow,20,2013-03-24 02:53:00
10:07 PM,30.2,26.6,86,30.01,2.5,NNE,13.8,-,0.00,Snow,Light Snow,20,2013-03-24 03:07:00
10:38 PM,30.2,26.6,86,29.99,3.0,NNE,17.3,-,0.00,Snow,Light Snow,20,2013-03-24 03:38:00
10:51 PM,30.2,26.6,86,29.98,3.0,NNE,17.3,-,0.00,Snow,Light Snow,20,2013-03-24 03:51:00
10:53 PM,30.0,26.1,85,30.01,4.0,NNE,18.4,-,0.00,Snow,Light Snow,20,2013-03-24 03:53:00
11:53 PM,30.0,26.1,85,30.03,9.0,North,16.1,21.9,0.00,,Overcast,10,2013-03-24 04:53:00